Location: Home
(42.5358°N, 72.7383°W)
Time: 15:02:16
(UTC-04:00)

Kosmos-337 - Pass Details

Date: 11 July 2022
Orbit: 1467 x 1552 km, 74.0° (Epoch: 18 August)

Event Time Altitude Azimuth Distance (km) Brightness Sun altitude
Rises 22:08:09 0° 342° (NNW) 4,733 ? -14.7°
Reaches altitude 10° 22:12:55 10° 3° (N) 3,742 ? -15.3°
Maximum altitude 22:18:08 16° 39° (NE) 3,268 ? -15.9°
Drops below altitude 10° 22:23:18 10° 74° (ENE) 3,711 ? -16.4°
Enters shadow 22:27:27 - 94° (E) 4,561 ? -16.9°
